FW6618 Weather Reports


Display with metric or nautical units.
time (UTC)temp
F
wind
direction
speed
MPH
gust
MPH
rain 1hr
in
rain 24hr
in
rain mn
in
humidity
%
barometer
mb
20260509232017 49 0 0.0 0.0 0.00 0.36 0.36 95 1010.8
20260509231536 49 0 0.0 0.0 0.00 0.36 0.36 95 1010.9
20260509231022 49 0 0.0 0.0 0.00 0.36 0.36 95 1010.8
20260509230517 49 0 0.0 0.0 0.00 0.36 0.36 95 1010.8
20260509230040 49 0 0.0 0.0 0.00 0.36 0.36 95 1010.9
20260509225521 49 0 0.0 0.0 0.00 0.36 0.36 95 1010.8
20260509225018 49 0 0.0 0.0 0.00 0.36 0.36 95 1010.9
20260509224536 49 0 0.0 0.0 0.00 0.36 0.36 95 1010.9
20260509224019 49 0 0.0 0.0 0.00 0.36 0.36 95 1010.9
20260509223520 49 0 0.0 0.0 0.00 0.36 0.36 95 1010.9
20260509223043 49 0 0.0 0.0 0.00 0.36 0.36 95 1011.0
20260509222519 49 0 0.0 0.0 0.00 0.36 0.36 95 1011.0
20260509222020 49 0 0.0 0.0 0.00 0.36 0.36 95 1011.0
20260509221537 49 0 0.0 0.0 0.00 0.36 0.36 95 1010.9
20260509221020 49 0 0.0 0.0 0.00 0.36 0.36 95 1011.1
20260509220518 49 0 0.0 0.0 0.00 0.36 0.36 95 1011.1
20260509220038 49 0 0.0 0.0 0.00 0.36 0.36 95 1011.1
20260509215519 49 0 0.0 0.0 0.00 0.36 0.36 95 1011.1
20260509215020 49 0 0.0 0.0 0.00 0.36 0.36 95 1011.3
20260509214538 49 0 0.0 0.0 0.00 0.36 0.36 95 1011.1
20260509214020 49 0 0.0 0.0 0.00 0.36 0.36 95 1011.2
20260509213518 49 0 0.0 0.0 0.00 0.36 0.36 95 1011.1
20260509213037 49 0 0.0 0.0 0.00 0.36 0.36 95 1011.2
20260509212517 49 0 0.0 0.0 0.00 0.36 0.36 95 1011.1
20260509212019 49 0 0.0 0.0 0.00 0.36 0.36 95 1011.2
20260509211536 49 0 0.0 0.0 0.00 0.36 0.36 95 1011.3
20260509211018 49 0 0.0 0.0 0.00 0.36 0.36 95 1011.3
20260509210517 49 0 0.0 0.0 0.01 0.36 0.36 95 1011.4
20260509210037 49 0 0.0 0.0 0.01 0.36 0.36 95 1011.5
20260509205516 49 0 0.0 0.0 0.01 0.36 0.36 95 1011.4
20260509205023 49 0 0.0 0.0 0.01 0.36 0.36 95 1011.5
20260509204536 49 0 0.0 0.0 0.02 0.36 0.36 95 1011.6
20260509204021 49 0 0.0 0.0 0.03 0.36 0.36 95 1011.6
20260509203518 49 0 0.0 0.0 0.03 0.36 0.36 95 1011.5
20260509203032 49 0 0.0 0.0 0.03 0.36 0.36 95 1011.7
20260509202520 49 0 0.0 0.0 0.03 0.36 0.36 95 1011.7
20260509202017 49 0 0.0 0.0 0.03 0.36 0.36 95 1011.7
20260509201542 49 0 0.0 0.0 0.03 0.36 0.36 95 1011.6
20260509201019 49 0 0.0 0.0 0.02 0.35 0.35 95 1011.7
20260509200518 49 0 0.0 0.0 0.03 0.35 0.35 95 1011.8
20260509200045 49 0 0.0 0.0 0.03 0.35 0.35 95 1011.9
20260509195521 49 0 0.0 0.0 0.03 0.35 0.35 95 1011.9
20260509195018 49 0 0.0 0.0 0.03 0.35 0.35 95 1012.0
20260509194537 49 0 0.0 0.0 0.03 0.34 0.34 95 1012.0
20260509194019 49 0 0.0 0.0 0.02 0.33 0.33 95 1012.0
20260509193517 48 0 0.0 0.0 0.02 0.33 0.33 95 1011.9
20260509193042 48 0 0.0 0.0 0.03 0.33 0.33 95 1012.0
20260509192519 48 0 0.0 0.0 0.03 0.33 0.33 95 1012.0
20260509192020 48 0 0.0 0.0 0.03 0.33 0.33 95 1011.9
20260509191534 48 0 0.0 0.0 0.04 0.33 0.33 95 1012.1
20260509191016 48 0 0.0 0.0 0.04 0.33 0.33 95 1012.1
20260509190517 47 0 0.0 0.0 0.03 0.32 0.32 95 1012.2
20260509190035 47 0 0.0 0.0 0.04 0.32 0.32 95 1012.3
20260509185518 47 0 0.0 0.0 0.04 0.32 0.32 95 1012.2
20260509185021 47 0 0.0 0.0 0.04 0.31 0.31 95 1012.2
20260509184542 47 0 0.0 0.0 0.04 0.31 0.31 95 1012.2
20260509184020 47 0 0.0 0.0 0.05 0.31 0.31 95 1012.3
20260509183516 47 0 0.0 0.0 0.06 0.31 0.31 95 1012.3
20260509183038 47 0 0.0 0.0 0.06 0.30 0.30 95 1012.3
20260509182520 47 0 0.0 0.0 0.06 0.30 0.30 95 1012.5
20260509182016 47 0 0.0 0.0 0.07 0.30 0.30 95 1012.5
20260509181544 47 0 0.0 0.0 0.06 0.29 0.29 95 1012.5
20260509181022 47 0 0.0 0.0 0.07 0.29 0.29 95 1012.5
20260509180520 47 0 0.0 0.0 0.08 0.29 0.29 95 1012.6
20260509180037 46 0 0.0 0.0 0.07 0.28 0.28 95 1012.6
20260509175519 47 0 0.0 0.0 0.07 0.28 0.28 95 1012.6
20260509175022 47 0 0.0 0.0 0.07 0.27 0.27 95 1012.5
20260509174534 47 0 0.0 0.0 0.07 0.27 0.27 95 1012.5
20260509174021 47 0 0.0 0.0 0.06 0.26 0.26 95 1012.7
20260509173520 47 0 0.0 0.0 0.05 0.25 0.25 95 1012.6
20260509173037 47 0 0.0 0.0 0.05 0.24 0.24 95 1012.7
20260509172520 47 0 0.0 0.0 0.05 0.24 0.24 95 1012.8
20260509172020 47 0 0.0 0.0 0.05 0.23 0.23 95 1012.8
20260509171544 47 0 0.0 0.0 0.04 0.22 0.22 95 1012.9
20260509171019 47 0 0.0 0.0 0.05 0.22 0.22 95 1012.9
20260509170521 47 0 0.0 0.0 0.04 0.21 0.21 95 1012.9
20260509170034 47 0 0.0 0.0 0.05 0.21 0.21 95 1013.0
20260509165519 47 0 0.0 0.0 0.05 0.21 0.21 95 1013.0
20260509165016 46 0 0.0 0.0 0.04 0.20 0.20 95 1013.1
20260509164537 46 0 0.0 0.0 0.05 0.20 0.20 95 1013.2
20260509164020 46 0 0.0 0.0 0.06 0.20 0.20 95 1013.2
20260509163516 46 0 0.0 0.0 0.06 0.20 0.20 95 1013.3
20260509163036 46 0 0.0 0.0 0.06 0.19 0.19 95 1013.3
20260509162518 46 0 0.0 0.0 0.06 0.19 0.19 95 1013.5
20260509162017 46 0 0.0 0.0 0.06 0.18 0.18 95 1013.5
20260509161536 46 0 0.0 0.0 0.06 0.18 0.18 95 1013.4
20260509161021 46 0 0.0 0.0 0.06 0.17 0.17 95 1013.6
20260509160517 46 0 0.0 0.0 0.06 0.17 0.17 95 1013.6
20260509160038 46 0 0.0 0.0 0.05 0.16 0.16 95 1013.7
20260509155517 46 0 0.0 0.0 0.05 0.16 0.16 95 1013.8
20260509155017 46 0 0.0 0.0 0.05 0.15 0.15 95 1013.9
20260509154537 45 0 0.0 0.0 0.05 0.15 0.15 95 1014.0
20260509154017 45 0 0.0 0.0 0.04 0.14 0.14 95 1014.0
20260509153519 45 0 0.0 0.0 0.05 0.14 0.14 95 1014.2
20260509153039 45 0 0.0 0.0 0.04 0.13 0.13 95 1014.3
20260509152519 45 0 0.0 0.0 0.04 0.13 0.13 95 1014.2
20260509152017 45 0 0.0 0.0 0.03 0.12 0.12 95 1014.2
20260509151537 45 0 0.0 0.0 0.04 0.12 0.12 95 1014.3
20260509151020 45 0 0.0 0.0 0.03 0.11 0.11 95 1014.3
20260509150517 45 0 0.0 0.0 0.04 0.11 0.11 95 1014.2
20260509150036 45 0 0.0 0.0 0.04 0.11 0.11 94 1014.3
20260509145518 45 0 0.0 0.0 0.05 0.11 0.11 94 1014.2
20260509145018 45 0 0.0 0.0 0.04 0.10 0.10 95 1014.2
20260509144556 45 0 0.0 0.0 0.05 0.10 0.10 95 1014.2
20260509144019 45 0 0.0 0.0 0.06 0.10 0.10 95 1014.2
20260509143524 45 0 0.0 0.0 0.06 0.09 0.09 95 1014.1
20260509143043 45 0 0.0 0.0 0.06 0.09 0.09 95 1014.2
20260509142519 45 0 0.0 0.0 0.07 0.09 0.09 95 1014.2
20260509142018 44 0 0.0 0.0 0.06 0.08 0.08 94 1014.1
20260509141542 44 0 0.0 0.0 0.07 0.08 0.08 94 1014.1
20260509141018 44 0 0.0 0.0 0.06 0.07 0.07 94 1014.1
20260509140518 44 0 0.0 0.0 0.06 0.07 0.07 95 1014.1
20260509140037 44 0 0.0 0.0 0.06 0.07 0.07 94 1014.0
20260509135520 43 0 0.0 0.0 0.05 0.06 0.06 94 1014.2
20260509135018 43 0 0.0 0.0 0.06 0.06 0.06 94 1014.1
20260509134537 43 0 0.0 0.0 0.05 0.05 0.05 94 1014.2
20260509134020 43 0 0.0 0.0 0.04 0.04 0.04 94 1014.1
20260509133518 42 0 0.0 0.0 0.03 0.03 0.03 93 1014.1
20260509133037 42 0 0.0 0.0 0.03 0.03 0.03 92 1014.1
20260509132519 42 0 0.0 0.0 0.02 0.02 0.02 92 1014.0
20260509132018 42 0 0.0 0.0 0.02 0.02 0.02 92 1014.1
20260509131541 42 0 0.0 0.0 0.01 0.01 0.01 92 1014.1
20260509131017 42 0 0.0 0.0 0.01 0.01 0.01 91 1014.2
20260509130518 42 0 0.0 0.0 0.01 0.01 0.01 91 1014.2
20260509130036 42 0 0.0 0.0 0.01 0.01 0.01 91 1014.1
20260509125516 42 0 0.0 0.0 0.01 0.01 0.01 90 1014.2
20260509125019 41 0 0.0 0.0 0.00 0.00 0.00 91 1014.1
20260509124543 41 0 0.0 0.0 0.00 0.00 0.00 91 1014.0
20260509124017 40 0 0.0 0.0 0.00 0.00 0.00 90 1014.1
20260509123517 40 0 0.0 0.0 0.00 0.00 0.00 90 1014.1
20260509123038 40 0 0.0 0.0 0.00 0.00 0.00 90 1014.1
20260509122519 40 0 0.0 0.0 0.00 0.00 0.00 90 1014.1
20260509122019 39 0 0.0 0.0 0.00 0.00 0.00 91 1014.0
20260509121535 39 0 0.0 0.0 0.00 0.00 0.00 91 1014.3
20260509121019 39 0 0.0 0.0 0.00 0.00 0.00 92 1014.5
20260509120517 38 0 0.0 0.0 0.00 0.00 0.00 92 1014.4
20260509120033 38 0 0.0 0.0 0.00 0.00 0.00 92 1014.4
20260509115517 37 0 0.0 0.0 0.00 0.00 0.00 93 1014.4
20260509115018 37 0 0.0 0.0 0.00 0.00 0.00 92 1014.4
20260509114533 37 0 0.0 0.0 0.00 0.00 0.00 93 1014.5
20260509114017 37 0 0.0 0.0 0.00 0.00 0.00 93 1014.5
20260509113520 36 0 0.0 0.0 0.00 0.00 0.00 94 1014.4
20260509113032 36 0 0.0 0.0 0.00 0.00 0.00 94 1014.5
20260509112519 35 0 0.0 0.0 0.00 0.00 0.00 94 1014.6
20260509112018 35 0 0.0 0.0 0.00 0.00 0.00 94 1014.5
20260509111537 35 0 0.0 0.0 0.00 0.00 0.00 95 1014.5
20260509111020 34 0 0.0 0.0 0.00 0.00 0.00 94 1014.7
20260509110518 34 0 0.0 0.0 0.00 0.00 0.00 94 1014.7
20260509110037 33 0 0.0 0.0 0.00 0.00 0.00 94 1014.9
20260509105519 33 0 0.0 0.0 0.00 0.00 0.00 94 1015.0
20260509105018 33 0 0.0 0.0 0.00 0.00 0.00 94 1015.0
20260509104537 33 0 0.0 0.0 0.00 0.00 0.00 94 1015.2
20260509104017 33 0 0.0 0.0 0.00 0.00 0.00 94 1014.9
20260509103517 33 0 0.0 0.0 0.00 0.00 0.00 94 1014.7
20260509103034 32 0 0.0 0.0 0.00 0.00 0.00 94 1014.9
20260509102518 32 0 0.0 0.0 0.00 0.00 0.00 94 1014.9
20260509102017 32 0 0.0 0.0 0.00 0.00 0.00 94 1014.8
20260509101538 32 0 0.0 0.0 0.00 0.00 0.00 94 1014.7
20260509101017 32 0 0.0 0.0 0.00 0.00 0.00 94 1014.6
20260509100516 32 0 0.0 0.0 0.00 0.00 0.00 94 1014.7
20260509100047 32 0 0.0 0.0 0.00 0.00 0.00 94 1014.6
20260509095523 32 0 0.0 0.0 0.00 0.00 0.00 94 1014.7
20260509095020 31 0 0.0 0.0 0.00 0.00 0.00 94 1014.9
20260509094537 31 0 0.0 0.0 0.00 0.00 0.00 94 1014.9
20260509094016 31 0 0.0 0.0 0.00 0.00 0.00 94 1015.0
20260509093519 32 0 0.0 0.0 0.00 0.00 0.00 94 1014.7
20260509093038 31 0 0.0 0.0 0.00 0.00 0.00 94 1014.8
20260509092519 31 0 0.0 0.0 0.00 0.00 0.00 94 1014.6
20260509092019 31 0 0.0 0.0 0.00 0.00 0.00 94 1014.6
20260509091536 31 0 0.0 0.0 0.00 0.00 0.00 94 1014.6
20260509091017 31 0 0.0 0.0 0.00 0.00 0.00 94 1014.6
20260509090518 30 0 0.0 0.0 0.00 0.00 0.00 94 1014.5
20260509090036 30 0 0.0 0.0 0.00 0.00 0.00 94 1014.5
20260509085516 30 0 0.0 0.0 0.00 0.00 0.00 94 1014.6
20260509085022 30 0 0.0 0.0 0.00 0.00 0.00 94 1014.6
20260509084538 30 0 0.0 0.0 0.00 0.00 0.00 94 1014.7
20260509084017 30 0 0.0 0.0 0.00 0.00 0.00 94 1014.6
20260509083517 30 0 0.0 0.0 0.00 0.00 0.00 94 1014.4
20260509083035 30 0 0.0 0.0 0.00 0.00 0.00 94 1014.5
20260509082523 30 0 0.0 0.0 0.00 0.00 0.00 94 1014.5
20260509082018 30 0 0.0 0.0 0.00 0.00 0.00 94 1014.5
20260509081543 30 0 0.0 0.0 0.00 0.00 0.00 94 1014.5
20260509081019 30 0 0.0 0.0 0.00 0.00 0.00 94 1014.5
20260509080516 30 0 0.0 0.0 0.00 0.00 0.00 94 1014.3
20260509080041 30 0 0.0 0.0 0.00 0.00 0.00 94 1014.4
20260509075519 30 0 0.0 0.0 0.00 0.00 0.00 94 1014.2
20260509075019 30 0 0.0 0.0 0.00 0.00 0.00 94 1014.4
20260509074538 30 0 0.0 0.0 0.00 0.00 0.00 94 1014.3
20260509074015 30 0 0.0 0.0 0.00 0.00 0.00 94 1014.3
20260509073516 30 0 0.0 0.0 0.00 0.00 0.00 94 1014.2
20260509073032 31 0 0.0 0.0 0.00 0.00 0.00 94 1014.1
20260509072521 31 0 0.0 0.0 0.00 0.00 0.00 94 1014.0
20260509072018 31 0 0.0 0.0 0.00 0.00 0.00 93 1014.4
20260509071535 31 0 0.0 0.0 0.00 0.00 0.00 93 1014.4
20260509071019 31 0 0.0 0.0 0.00 0.00 0.00 93 1014.4
20260509070519 31 0 0.0 0.0 0.00 0.00 0.00 93 1014.5
20260509070035 31 0 0.0 0.0 0.00 0.00 0.00 93 1014.4
20260509065522 31 0 0.0 0.0 0.00 0.00 0.00 93 1014.3
20260509065016 31 0 0.0 0.0 0.00 0.00 0.00 93 1014.4
20260509064537 31 0 0.0 0.0 0.00 0.00 0.00 93 1014.4
20260509064017 32 0 0.0 0.0 0.00 0.00 0.00 93 1014.4
20260509063516 32 0 0.0 0.0 0.00 0.00 0.00 93 1014.5
20260509063031 32 0 0.0 0.0 0.00 0.00 0.00 93 1014.6
20260509062518 32 0 0.0 0.0 0.00 0.00 0.00 93 1014.7
20260509062015 32 0 0.0 0.0 0.00 0.00 0.00 93 1014.7
20260509061545 32 0 0.0 0.0 0.00 0.00 0.00 93 1014.9
20260509061021 32 0 0.0 0.0 0.00 0.00 0.00 93 1015.0
20260509060520 32 0 0.0 0.0 0.00 0.00 0.00 93 1014.9
20260509060037 32 0 0.0 0.0 0.00 0.00 0.00 93 1015.0
20260509055519 32 0 0.0 0.0 0.00 0.00 0.00 93 1015.0
20260509055024 32 0 0.0 0.0 0.00 0.00 0.00 93 1015.1
20260509054538 32 0 0.0 0.0 0.00 0.00 0.00 93 1015.1
20260509054020 32 0 0.0 0.0 0.00 0.00 0.00 93 1015.0
20260509053519 32 0 0.0 0.0 0.00 0.00 0.00 93 1015.1
20260509053035 32 0 0.0 0.0 0.00 0.00 0.00 93 1015.2
20260509052517 32 0 0.0 0.0 0.00 0.00 0.00 93 1015.2
20260509052021 32 0 0.0 0.0 0.00 0.00 0.00 92 1015.2
20260509051534 32 0 0.0 0.0 0.00 0.00 0.00 92 1015.3
20260509051016 32 0 0.0 0.0 0.00 0.00 0.00 92 1015.1
20260509050517 32 0 0.0 0.0 0.00 0.00 0.00 92 1015.1
20260509050048 32 0 0.0 0.0 0.00 0.00 0.00 92 1015.0
20260509045515 33 0 0.0 0.0 0.00 0.00 0.00 92 1015.0
20260509045016 33 0 0.0 0.0 0.00 0.00 0.00 92 1015.0
20260509044544 33 0 0.0 0.0 0.00 0.00 0.00 91 1015.0
20260509044018 33 0 0.0 0.0 0.00 0.00 0.00 91 1014.9
20260509043515 33 0 0.0 0.0 0.00 0.00 0.00 91 1014.8
20260509043034 33 0 0.0 0.0 0.00 0.00 0.00 91 1014.9
20260509042520 33 0 0.0 0.0 0.00 0.00 0.00 91 1014.7
20260509042016 34 0 0.0 0.0 0.00 0.00 0.00 91 1014.7
20260509041533 34 0 0.0 0.0 0.00 0.00 0.00 91 1014.7
20260509041019 34 0 0.0 0.0 0.00 0.00 0.00 90 1014.6
20260509040516 34 0 0.0 0.0 0.00 0.00 0.00 90 1014.5
20260509040039 34 0 0.0 0.0 0.00 0.00 0.00 90 1014.5
20260509035519 34 0 0.0 0.0 0.00 0.00 0.00 90 1014.5
20260509035018 34 0 0.0 0.0 0.00 0.00 0.00 90 1014.5
20260509034543 34 0 0.0 0.0 0.00 0.00 0.00 91 1014.4
20260509034018 34 0 0.0 0.0 0.00 0.00 0.00 91 1014.5
20260509033517 34 0 0.0 0.0 0.00 0.00 0.00 90 1014.4
20260509033037 34 0 0.0 0.0 0.00 0.00 0.00 90 1014.5
20260509032520 34 0 0.0 0.0 0.00 0.00 0.00 90 1014.6
20260509032017 34 0 0.0 0.0 0.00 0.00 0.00 90 1014.5
20260509031542 35 0 0.0 0.0 0.00 0.00 0.00 89 1014.5
20260509031018 35 0 0.0 0.0 0.00 0.00 0.00 89 1014.5
20260509030519 35 0 0.0 0.0 0.00 0.00 0.00 89 1014.4
20260509030034 35 0 0.0 0.0 0.00 0.00 0.00 88 1014.3
20260509025516 35 0 0.0 0.0 0.00 0.00 0.00 88 1014.2
20260509025017 35 0 0.0 0.0 0.00 0.00 0.00 88 1014.2
20260509024537 36 0 0.0 0.0 0.00 0.00 0.00 88 1014.2
20260509024022 36 0 0.0 0.0 0.00 0.00 0.00 88 1014.1
20260509023521 36 0 0.0 0.0 0.00 0.00 0.00 88 1014.1
20260509023048 36 0 0.0 0.0 0.00 0.00 0.00 87 1014.2
20260509022518 36 0 0.0 0.0 0.00 0.00 0.00 87 1014.1
20260509022018 36 0 0.0 0.0 0.00 0.00 0.00 87 1014.1
20260509021537 36 0 0.0 0.0 0.00 0.00 0.00 87 1014.1
20260509021021 37 0 0.0 0.0 0.00 0.00 0.00 87 1014.0
20260509020520 37 0 0.0 0.0 0.00 0.00 0.00 86 1013.9
20260509020036 37 0 0.0 0.0 0.00 0.00 0.00 86 1013.9
20260509015520 37 0 0.0 0.0 0.00 0.00 0.00 86 1013.8
20260509015021 37 0 0.0 0.0 0.00 0.00 0.00 86 1013.8
20260509014535 37 0 0.0 0.0 0.00 0.00 0.00 86 1013.8
20260509014020 38 0 0.0 0.0 0.00 0.00 0.00 86 1013.7
20260509013520 38 0 0.0 0.0 0.00 0.00 0.00 87 1013.6
20260509013055 38 0 0.0 0.0 0.00 0.00 0.00 86 1013.6
20260509012519 38 0 0.0 0.0 0.00 0.00 0.00 86 1013.5
20260509012017 38 0 0.0 0.0 0.00 0.00 0.00 86 1013.4
20260509011538 39 0 0.0 0.0 0.00 0.00 0.00 85 1013.4
20260509011019 39 0 0.0 0.0 0.00 0.00 0.00 84 1013.4
20260509010518 39 0 0.0 0.0 0.00 0.00 0.00 85 1013.2
20260509010035 39 0 0.0 0.0 0.00 0.00 0.00 85 1013.2
20260509005520 40 0 0.0 0.0 0.00 0.00 0.00 85 1013.1
20260509005018 40 0 0.0 0.0 0.00 0.00 0.00 85 1012.9
20260509004536 40 0 0.0 0.0 0.00 0.00 0.00 84 1013.0
20260509004020 40 0 0.0 0.0 0.00 0.00 0.00 84 1012.7
20260509003520 41 0 0.0 0.0 0.00 0.00 0.00 84 1012.6
20260509003035 41 0 0.0 0.0 0.00 0.00 0.00 83 1012.6
20260509002521 42 0 0.0 0.0 0.00 0.00 0.00 83 1012.7
20260509002017 42 0 0.0 0.0 0.00 0.00 0.00 82 1012.5
20260509001537 42 0 0.0 0.0 0.00 0.00 0.00 82 1012.7
20260509001020 43 0 0.0 0.0 0.00 0.00 0.00 82 1012.5
20260509000519 43 0 0.0 0.0 0.00 0.00 0.00 81 1012.5
20260509000037 44 0 0.0 1.0 0.00 0.00 0.00 80 1012.5
20260508235517 44 0 0.0 1.0 0.00 0.00 0.00 79 1012.5
20260508235017 45 54 0.0 1.0 0.00 0.00 0.00 78 1012.4
20260508234537 45 54 0.0 1.0 0.00 0.00 0.00 77 1012.2
20260508234020 46 0 0.0 1.0 0.00 0.00 0.00 75 1012.3
20260508233520 46 54 0.0 2.0 0.00 0.00 0.00 74 1012.1
20260508233037 47 54 0.0 2.0 0.00 0.00 0.00 73 1012.1
20260508232520 47 29 1.0 2.0 0.00 0.00 0.00 73 1012.1